Sunday, October 22, 2017, 5:13 PM EDT
Back to Local

KEWR, Newark International Airport

Location: Elizabeth, NJ, United States Lat: 40.683
Local Time: 5:13 PM EDT (21:13 GMT) Lon: -74.167
Time Zone: US/Eastern Elev: 16 ft

Show me the last for .
Show Coded

Time T Td Feel RH Dir Speed Gust Alt SLP Vis Weather Sky Remarks
2017-10-22 16:51 72 54 76 53 140° 9 - 30.35 30.34 10 FEW100 BKN200 BKN250 None
2017-10-22 15:51 73 50 76 44 Variable 7 - 30.35 30.35 10 FEW100 SCT180 BKN250 None
2017-10-22 14:51 74 46 - 37 130° 9 - 30.36 30.35 10 FEW090 SCT180 BKN250 None
2017-10-22 13:51 74 47 - 38 140° 9 - 30.37 30.37 10 SCT200 BKN260 6-hr Min Temp (2pm): 54.0°F
6-hr Max Temp (2pm): 75.0°F
2017-10-22 12:51 75 44 - 33 160° 7 - 30.39 30.38 10 SCT200 BKN260 None
2017-10-22 11:51 72 47 75 40 100° 5 - 30.40 30.40 10 FEW200 BKN250 None
2017-10-22 10:51 68 44 - 42 100° 5 - 30.40 30.40 10 FEW200 BKN250 None
2017-10-22 09:51 62 47 - 57 - Calm - 30.41 30.41 10 FEW200 BKN250 None
2017-10-22 08:51 57 49 - 74 - Calm - 30.42 30.42 10 FEW190 BKN250 None
2017-10-22 07:51 54 49 - 83 - Calm - 30.40 30.40 10 FEW150 BKN250 6-hr Min Temp (8am): 50.0°F
6-hr Max Temp (8am): 57.9°F
2017-10-22 06:51 52 47 - 82 20° 3 - 30.38 30.38 10 SCT250 None
2017-10-22 05:51 53 46 - 76 10° 5 - 30.37 30.37 10 FEW250 None
2017-10-22 04:51 53 45 - 73 - Calm - 30.36 30.36 10 FEW250 None
2017-10-22 03:51 56 47 - 71 200° 3 - 30.35 30.35 10 FEW250 None
2017-10-22 02:51 57 46 - 66 230° 5 - 30.35 30.34 10 FEW280 None
2017-10-22 01:51 57 47 - 68 200° 5 - 30.36 30.35 10 SCT280 6-hr Min Temp (2am): 57.0°F
6-hr Max Temp (2am): 66.9°F
2017-10-22 00:51 57 46 - 66 - Calm - 30.36 30.35 10 SCT280 24-hr Min Temp (1am): 52.0°F
24-hr Max Temp (1am): 81.0°F
2017-10-21 23:51 57 46 - 66 220° 6 - 30.36 30.35 10 SCT280 None
2017-10-21 22:51 60 46 - 59 210° 6 - 30.36 30.35 10 BKN280 None
2017-10-21 21:51 62 46 - 55 220° 5 - 30.36 30.35 10 BKN280 None
2017-10-21 20:51 64 45 - 49 200° 6 - 30.35 30.34 10 BKN280 None
2017-10-21 19:51 67 46 - 47 180° 6 - 30.34 30.33 10 BKN280 6-hr Min Temp (8pm): 66.9°F
6-hr Max Temp (8pm): 81.0°F
2017-10-21 18:51 70 44 - 39 170° 5 - 30.33 30.32 10 BKN280 None
2017-10-21 17:51 73 43 - 33 180° 5 - 30.32 30.31 10 BKN280 None

Support USWX by starting your Amazon purchase here.